This is the latest recevied weather packets stored in our database for station/object APPOWX. If no packets are shown the sender has not sent any weather packets the latest 10 day(s).
| Time | Temp. | Humidity | Pressure | Rain* | Wind** | Luminosity | Snow |
|---|---|---|---|---|---|---|---|
| 1778339514 | 19.44° C | 64% | 1014.2 hPa | 0 mm | - | - | - |
| 1778339455 | 19.44° C | 66% | 1014.2 hPa | 0 mm | - | - | - |
| 1778339395 | 19.44° C | 67% | 1014.2 hPa | 0 mm | - | - | - |
| 1778339334 | 19.44° C | 63% | 1014 hPa | 0 mm | - | - | - |
| 1778339274 | 18.89° C | 65% | 1014.1 hPa | 0 mm | - | - | - |
| 1778339214 | 18.33° C | 65% | 1014.2 hPa | 0 mm | - | - | - |
| 1778339154 | 18.89° C | 65% | 1014.2 hPa | 0 mm | - | - | - |
| 1778339094 | 19.44° C | 65% | 1014.3 hPa | 0 mm | - | - | - |
| 1778339034 | 18.89° C | 64% | 1014.3 hPa | 0 mm | - | - | - |
| 1778338974 | 18.89° C | 69% | 1014.3 hPa | 0 mm | - | - | - |
| 1778338913 | 18.33° C | 66% | 1014.4 hPa | 0 mm | - | - | - |
| 1778338854 | 18.33° C | 65% | 1014.3 hPa | 0 mm | - | - | - |
| 1778338794 | 18.89° C | 67% | 1014.2 hPa | 0 mm | - | - | - |
| 1778338734 | 18.89° C | 65% | 1014.5 hPa | 0 mm | - | - | - |
| 1778338673 | 18.89° C | 64% | 1014.5 hPa | 0 mm | - | - | - |
| 1778338613 | 18.89° C | 67% | 1014.6 hPa | 0 mm | - | - | - |
| 1778338554 | 18.89° C | 63% | 1014.4 hPa | 0 mm | - | - | - |
| 1778338493 | 19.44° C | 62% | 1014.4 hPa | 0 mm | - | - | - |
| 1778338433 | 19.44° C | 67% | 1014.5 hPa | 0 mm | - | - | - |
| 1778338373 | 19.44° C | 66% | 1014.4 hPa | 0 mm | - | - | - |
| 1778338314 | 18.89° C | 64% | 1014.4 hPa | 0 mm | - | - | - |
| 1778338254 | 18.89° C | 64% | 1014.2 hPa | 0 mm | - | - | - |
| 1778338193 | 18.89° C | 66% | 1014.4 hPa | 0 mm | - | - | - |
| 1778338134 | 17.78° C | 67% | 1014.4 hPa | 0 mm | - | - | - |
| 1778338073 | 17.22° C | 66% | 1014.3 hPa | 0 mm | - | - | - |
* Rain latest hour (hover to see other rain measurements)
** Current wind speed in m/s (hover to see current wind gust speed)